FW8282 Weather Reports


Display with metric or nautical units.
time (UTC)temp
F
wind
direction
speed
MPH
gust
MPH
rain 1hr
in
rain 24hr
in
rain mn
in
humidity
%
barometer
mb
20260906151512 87 213 0.0 0.0 0.00 0.00 0.00 78 1012.5
20260906151008 87 200 0.0 0.0 0.00 0.00 0.00 80 1012.6
20260906150502 87 351 0.0 0.0 0.00 0.00 0.00 82 1012.8
20260906150001 88 251 0.0 0.0 0.00 0.00 0.00 80 1012.6
20260906145456 89 279 0.0 0.0 0.00 0.00 0.00 78 1012.7
20260906144955 88 349 0.0 0.0 0.00 0.00 0.00 79 1012.7
20260906144450 88 177 0.0 0.0 0.00 0.00 0.00 81 1012.4
20260906143946 88 258 0.0 0.0 0.00 0.00 0.00 80 1012.7
20260906143441 88 22 0.0 0.0 0.00 0.00 0.00 79 1012.6
20260906142937 86 208 0.0 0.0 0.00 0.00 0.00 82 1012.7
20260906142431 86 147 0.0 0.0 0.00 0.00 0.00 83 1012.8
20260906141926 86 157 0.0 0.0 0.00 0.00 0.00 84 1012.8
20260906141426 87 267 0.0 0.0 0.00 0.00 0.00 84 1012.8
20260906140920 86 191 0.0 0.0 0.00 0.00 0.00 86 1012.6
20260906140414 86 210 0.0 0.0 0.00 0.00 0.00 85 1012.7
20260906135912 86 196 0.0 0.0 0.00 0.00 0.00 86 1012.7
20260906135406 86 231 0.0 0.0 0.00 0.00 0.00 87 1012.9
20260906134902 86 161 0.0 0.0 0.00 0.00 0.00 88 1012.9
20260906134357 85 116 0.0 0.0 0.00 0.00 0.00 88 1012.8
20260906133852 85 201 0.0 0.0 0.00 0.00 0.00 88 1012.8
20260906133348 84 175 0.0 0.0 0.00 0.00 0.00 90 1012.7
20260906132843 84 249 0.0 0.0 0.00 0.00 0.00 91 1012.7
20260906132338 83 261 0.0 0.0 0.00 0.00 0.00 94 1013.0
20260906131834 83 159 0.0 0.0 0.00 0.00 0.00 97 1012.7
20260906131329 82 186 0.0 0.0 0.00 0.00 0.00 98 1012.8
20260906130825 81 210 0.0 0.0 0.00 0.00 0.00 99 1012.6
20260906130324 82 154 0.0 0.0 0.00 0.00 0.00 99 1012.6
20260906125823 80 147 0.0 0.0 0.00 0.00 0.00 99 1012.9
20260906125321 80 149 0.0 0.0 0.00 0.00 0.00 99 1012.8
20260906124816 79 157 0.0 0.0 0.00 0.00 0.00 99 1012.8
20260906124312 79 168 0.0 0.0 0.00 0.00 0.00 99 1012.8
20260906123811 79 157 0.0 0.0 0.00 0.00 0.00 99 1012.6
20260906123306 79 155 0.0 0.0 0.00 0.00 0.00 99 1012.5
20260906122806 78 142 0.0 0.0 0.00 0.00 0.00 99 1012.7
20260906122301 78 158 0.0 0.0 0.00 0.00 0.00 99 1012.9
20260906121757 78 158 0.0 0.0 0.00 0.00 0.00 99 1012.5
20260906121253 78 160 0.0 0.0 0.00 0.00 0.00 99 1012.1
20260906120749 78 166 0.0 0.0 0.00 0.00 0.00 99 1012.4
20260906120246 77 182 0.0 0.0 0.00 0.00 0.00 99 1012.1
20260906115741 77 184 0.0 0.0 0.00 0.00 0.00 99 1011.9
20260906115236 77 174 0.0 0.0 0.00 0.00 0.00 99 1012.3
20260906114735 77 165 0.0 0.0 0.00 0.00 0.00 99 1011.9
20260906114230 77 169 0.0 0.0 0.00 0.00 0.00 99 1012.0
20260906113726 76 169 0.0 0.0 0.00 0.00 0.00 99 1011.9
20260906113225 76 172 0.0 0.0 0.00 0.00 0.00 99 1012.0
20260906112724 76 172 0.0 0.0 0.00 0.00 0.00 99 1011.7
20260906112222 76 169 0.0 0.0 0.00 0.00 0.00 99 1011.6
20260906111721 75 176 0.0 0.0 0.00 0.00 0.00 99 1011.4
20260906111215 75 175 0.0 0.0 0.00 0.00 0.00 99 1011.5
20260906110711 76 169 0.0 0.0 0.00 0.00 0.00 99 1011.5
20260906110206 76 172 0.0 0.0 0.00 0.00 0.00 99 1011.5
20260906105659 75 175 0.0 0.0 0.00 0.00 0.00 99 1011.5
20260906105155 75 174 0.0 0.0 0.00 0.00 0.00 99 1011.5
20260906104655 75 172 0.0 0.0 0.00 0.00 0.00 99 1011.5
20260906104149 75 176 0.0 0.0 0.00 0.00 0.00 99 1011.1
20260906103647 76 169 0.0 0.0 0.00 0.00 0.00 99 1011.0
20260906103142 76 176 0.0 0.0 0.00 0.00 0.00 99 1011.0
20260906102637 76 175 0.0 0.0 0.00 0.00 0.00 99 1010.9
20260906102132 76 170 0.0 0.0 0.00 0.00 0.00 99 1010.9
20260906101631 76 169 0.0 0.0 0.00 0.00 0.00 99 1010.7
20260906101131 76 176 0.0 0.0 0.00 0.00 0.00 99 1010.7
20260906100627 76 176 0.0 0.0 0.00 0.00 0.00 99 1010.9
20260906100122 76 176 0.0 0.0 0.00 0.00 0.00 99 1010.9
20260906095622 76 176 0.0 0.0 0.00 0.00 0.00 99 1010.8
20260906095118 76 172 0.0 0.0 0.00 0.00 0.00 99 1010.6
20260906094616 76 176 0.0 0.0 0.00 0.00 0.00 99 1010.6
20260906094112 76 176 0.0 0.0 0.00 0.00 0.00 99 1010.7
20260906093608 76 176 0.0 0.0 0.00 0.00 0.00 99 1010.8
20260906093103 76 172 0.0 0.0 0.00 0.00 0.00 99 1010.4
20260906092558 76 172 0.0 0.0 0.00 0.00 0.00 99 1010.5
20260906092053 76 169 0.0 0.0 0.00 0.00 0.00 99 1010.4
20260906091549 76 169 0.0 0.0 0.00 0.00 0.00 99 1010.4
20260906091046 76 161 0.0 0.0 0.00 0.00 0.00 99 1010.3
20260906090545 76 168 0.0 0.0 0.00 0.00 0.00 99 1010.6
20260906090040 76 170 0.0 0.0 0.00 0.00 0.00 99 1010.4
20260906085539 76 169 0.0 0.0 0.00 0.00 0.00 99 1010.4
20260906085039 76 161 0.0 0.0 0.00 0.00 0.00 99 1010.2
20260906084533 76 169 0.0 0.0 0.00 0.00 0.00 99 1010.1
20260906084032 76 159 0.0 0.0 0.00 0.00 0.00 99 1010.1
20260906083528 76 172 0.0 0.0 0.00 0.00 0.00 99 1010.1
20260906083027 76 161 0.0 0.0 0.00 0.00 0.00 99 1010.1
20260906082522 76 161 0.0 0.0 0.00 0.00 0.00 99 1010.0
20260906082018 76 172 0.0 0.0 0.00 0.00 0.00 99 1010.2
20260906081514 76 172 0.0 0.0 0.00 0.00 0.00 99 1010.1
20260906081009 77 179 0.0 0.0 0.00 0.00 0.00 99 1010.0
20260906080506 77 179 0.0 0.0 0.00 0.00 0.00 99 1010.1
20260906080001 77 179 0.0 0.0 0.00 0.00 0.00 99 1010.1
20260906075455 77 179 0.0 0.0 0.00 0.00 0.00 99 1010.1
20260906074951 77 179 0.0 0.0 0.00 0.00 0.00 99 1010.1
20260906074445 77 179 0.0 0.0 0.00 0.00 0.00 99 1010.0
20260906073943 77 179 0.0 0.0 0.00 0.00 0.00 99 1010.2
20260906073438 77 176 0.0 0.0 0.00 0.00 0.00 99 1009.9
20260906072935 77 176 0.0 0.0 0.00 0.00 0.00 99 1010.2
20260906072430 77 176 0.0 0.0 0.00 0.00 0.00 99 1010.2
20260906071926 77 176 0.0 0.0 0.00 0.00 0.00 99 1010.3
20260906071421 77 176 0.0 0.0 0.00 0.00 0.00 99 1010.5
20260906070917 77 169 0.0 0.0 0.00 0.00 0.00 99 1010.4
20260906070413 77 172 0.0 0.0 0.00 0.00 0.00 99 1010.5
20260906065909 77 179 0.0 0.0 0.00 0.00 0.00 99 1010.6
20260906065403 77 176 0.0 0.0 0.00 0.00 0.00 99 1010.7
20260906064859 77 170 0.0 0.0 0.00 0.00 0.00 99 1010.7
20260906064355 77 176 0.0 0.0 0.00 0.00 0.00 99 1011.0
20260906063854 77 174 0.0 0.0 0.00 0.00 0.00 99 1011.0
20260906063350 77 172 0.0 0.0 0.00 0.00 0.00 99 1011.0
20260906062845 77 169 0.0 0.0 0.00 0.00 0.00 99 1011.1
20260906062344 77 161 0.0 0.0 0.00 0.00 0.00 99 1011.1
20260906061840 77 161 0.0 0.0 0.00 0.00 0.00 99 1011.3
20260906061336 77 165 0.0 0.0 0.00 0.00 0.00 99 1011.6
20260906060830 77 162 0.0 0.0 0.00 0.00 0.00 99 1011.5
20260906060329 77 162 0.0 0.0 0.00 0.00 0.00 99 1011.6
20260906055824 77 165 0.0 0.0 0.00 0.00 0.00 99 1011.6
20260906055320 77 165 0.0 0.0 0.00 0.00 0.00 99 1011.7
20260906054815 77 165 0.0 0.0 0.00 0.00 0.00 99 1011.6
20260906054310 78 165 0.0 0.0 0.00 0.00 0.00 99 1011.6
20260906053806 78 165 0.0 0.0 0.00 0.00 0.00 99 1011.7
20260906053301 78 169 0.0 0.0 0.00 0.00 0.00 99 1011.6
20260906052756 78 171 0.0 0.0 0.00 0.00 0.00 99 1011.8
20260906052253 78 162 0.0 0.0 0.00 0.00 0.00 99 1011.6
20260906051750 78 158 0.0 0.0 0.00 0.00 0.00 99 1011.8
20260906051249 78 157 0.0 0.0 0.00 0.00 0.00 99 1011.9
20260906050744 78 158 0.0 0.0 0.00 0.00 0.00 99 1011.9
20260906050239 78 162 0.0 0.0 0.00 0.00 0.00 99 1011.8
20260906045738 78 159 0.0 0.0 0.00 0.00 0.00 99 1011.6
20260906045233 78 160 0.0 0.0 0.00 0.00 0.00 99 1011.9
20260906044729 78 159 0.0 0.0 0.00 0.00 0.00 99 1012.4
20260906044224 78 153 0.0 0.0 0.00 0.00 0.00 99 1012.3
20260906043720 78 158 0.0 0.0 0.00 0.00 0.00 99 1012.1
20260906043216 78 166 0.0 0.0 0.00 0.00 0.00 99 1012.1
20260906042715 78 153 0.0 0.0 0.00 0.00 0.00 99 1012.1
20260906042214 78 157 0.0 0.0 0.00 0.00 0.00 99 1012.1
20260906041710 78 157 0.0 0.0 0.00 0.00 0.00 99 1012.4
20260906041205 78 163 0.0 0.0 0.00 0.00 0.00 99 1012.1
20260906040701 78 155 0.0 0.0 0.00 0.00 0.00 99 1012.3
20260906040156 78 153 0.0 0.0 0.00 0.00 0.00 99 1012.5
20260906035651 78 153 0.0 0.0 0.00 0.00 0.00 99 1012.5
20260906035147 78 146 0.0 0.0 0.00 0.00 0.00 99 1012.3
20260906034642 78 154 0.0 0.0 0.00 0.00 0.00 99 1012.3
20260906034142 78 136 0.0 0.0 0.00 0.00 0.00 99 1012.0
20260906033637 78 152 0.0 0.0 0.00 0.00 0.00 99 1011.9
20260906033132 79 152 0.0 0.0 0.00 0.00 0.00 99 1012.0
20260906032629 79 142 0.0 0.0 0.00 0.00 0.00 99 1011.9
20260906032128 78 153 0.0 0.0 0.00 0.00 0.00 99 1011.9
20260906031624 79 152 0.0 0.0 0.00 0.00 0.00 99 1011.9
20260906031119 79 154 0.0 0.0 0.00 0.00 0.00 99 1012.1
20260906030618 79 154 0.0 0.0 0.00 0.00 0.00 98 1012.4
20260906030114 79 152 0.0 0.0 0.00 0.00 0.00 98 1012.3
20260906025613 79 155 0.0 0.0 0.00 0.00 0.00 98 1012.3
20260906025112 79 155 0.0 0.0 0.00 0.00 0.00 98 1012.0
20260906024607 79 154 0.0 0.0 0.00 0.00 0.00 98 1012.1
20260906024101 79 152 0.0 0.0 0.00 0.00 0.00 98 1012.7
20260906023557 79 151 0.0 0.0 0.00 0.00 0.00 98 1012.4
20260906023052 79 150 0.0 0.0 0.00 0.00 0.00 97 1012.3
20260906022547 79 150 0.0 0.0 0.00 0.00 0.00 97 1012.3
20260906022043 79 151 0.0 0.0 0.00 0.00 0.00 97 1012.3
20260906021538 79 151 0.0 0.0 0.00 0.00 0.00 97 1012.4
20260906021037 80 150 0.0 0.0 0.00 0.00 0.00 97 1012.1
20260906020536 80 143 0.0 0.0 0.00 0.00 0.00 96 1012.3
20260906020031 80 153 0.0 0.0 0.00 0.00 0.00 96 1012.3
20260906015530 80 150 0.0 0.0 0.00 0.00 0.00 96 1011.9
20260906015030 80 150 0.0 0.0 0.00 0.00 0.00 95 1012.1
20260906014525 80 136 0.0 0.0 0.00 0.00 0.00 95 1011.9
20260906014021 80 152 0.0 0.0 0.00 0.00 0.00 94 1011.9
20260906013516 80 153 0.0 0.0 0.00 0.00 0.00 93 1011.6
20260906013011 80 152 0.0 0.0 0.00 0.00 0.00 93 1011.7
20260906012506 81 152 0.0 0.0 0.00 0.00 0.00 93 1011.9
20260906012005 81 139 0.0 0.0 0.00 0.00 0.00 93 1011.6
20260906011501 82 140 0.0 0.0 0.00 0.00 0.00 92 1011.7
20260906010950 82 153 0.0 0.0 0.00 0.00 0.00 90 1011.7
20260906010446 82 153 0.0 0.0 0.00 0.00 0.00 90 1011.4
20260906005943 82 154 0.0 0.0 0.00 0.00 0.00 89 1011.5
20260906005441 82 164 0.0 0.0 0.00 0.00 0.00 89 1011.5
20260906004940 82 151 0.0 0.0 0.00 0.00 0.00 88 1011.3
20260906004434 82 160 0.0 0.0 0.00 0.00 0.00 89 1011.2
20260906003930 82 141 0.0 0.0 0.00 0.00 0.00 89 1011.4
20260906003430 83 130 0.0 0.0 0.00 0.00 0.00 89 1011.3
20260906002926 83 161 0.0 0.0 0.00 0.00 0.00 88 1011.2
20260906002425 84 158 0.0 0.0 0.00 0.00 0.00 86 1011.4
20260906001920 84 189 0.0 0.0 0.00 0.00 0.00 85 1011.4
20260906001416 84 228 0.0 0.0 0.00 0.00 0.00 85 1011.4
20260906000911 84 186 0.0 0.0 0.00 0.00 0.00 85 1011.3
20260906000406 84 45 0.0 0.0 0.00 0.00 0.00 86 1011.3
20260905235901 85 264 0.0 0.0 0.00 0.00 0.00 85 1011.5
20260905235355 85 223 0.0 0.0 0.00 0.00 0.00 85 1011.7
20260905234850 85 172 0.0 0.0 0.00 0.00 0.00 84 1011.6
20260905234346 85 177 0.0 0.0 0.00 0.00 0.00 83 1011.5
20260905233841 86 166 0.0 0.0 0.00 0.00 0.00 82 1011.4
20260905233336 86 260 0.0 0.0 0.00 0.00 0.00 81 1011.6
20260905232835 86 295 0.0 0.0 0.00 0.00 0.00 80 1011.2
20260905232331 87 220 0.0 0.0 0.00 0.00 0.00 80 1011.3
20260905231827 87 273 0.0 0.0 0.00 0.00 0.00 79 1011.5
20260905231321 87 209 0.0 0.0 0.00 0.00 0.00 78 1011.5
20260905230818 89 178 0.0 0.0 0.00 0.00 0.00 76 1011.6
20260905230316 89 251 0.0 0.0 0.00 0.00 0.00 75 1011.4
20260905225815 89 297 3.0 3.0 0.00 0.00 0.00 74 1011.7
20260905225310 89 256 0.0 0.0 0.00 0.00 0.00 73 1011.5
20260905224810 90 258 1.0 3.0 0.00 0.00 0.00 73 1011.6
20260905224306 91 213 0.0 0.0 0.00 0.00 0.00 71 1011.7
20260905223801 90 241 0.0 0.0 0.00 0.00 0.00 73 1011.8
20260905223258 90 288 1.0 2.0 0.00 0.00 0.00 72 1011.5
20260905222753 90 263 3.0 6.0 0.00 0.00 0.00 72 1011.3
20260905222252 91 269 0.0 0.0 0.00 0.00 0.00 72 1011.4
20260905221748 90 242 2.0 5.0 0.00 0.00 0.00 72 1011.4
20260905221245 91 260 4.0 6.0 0.00 0.00 0.00 71 1011.3
20260905220740 91 266 0.0 0.0 0.00 0.00 0.00 71 1011.6
20260905220237 91 274 0.0 1.0 0.00 0.00 0.00 71 1011.4
20260905215736 91 268 0.0 0.0 0.00 0.00 0.00 71 1011.4
20260905215231 91 240 0.0 0.0 0.00 0.00 0.00 71 1011.5
20260905214727 90 277 1.0 1.0 0.00 0.00 0.00 70 1011.4
20260905214222 91 288 4.0 7.0 0.00 0.00 0.00 70 1011.3
20260905213718 91 264 2.0 3.0 0.00 0.00 0.00 69 1011.2
20260905213214 91 276 0.0 1.0 0.00 0.00 0.00 70 1011.3
20260905212709 91 254 3.0 5.0 0.00 0.00 0.00 70 1011.3
20260905212208 92 244 3.0 5.0 0.00 0.00 0.00 70 1011.5
20260905211703 91 254 0.0 0.0 0.00 0.00 0.00 71 1011.5
20260905211158 92 251 1.0 3.0 0.00 0.00 0.00 69 1011.5
20260905210655 91 328 2.0 3.0 0.00 0.00 0.00 71 1011.3
20260905210154 91 243 0.0 0.0 0.00 0.00 0.00 71 1011.5
20260905205653 91 274 4.0 5.0 0.00 0.00 0.00 69 1011.1
20260905205153 91 287 3.0 6.0 0.00 0.00 0.00 67 1011.4
20260905204653 92 249 0.0 0.0 0.00 0.00 0.00 70 1011.2
20260905204148 92 276 1.0 3.0 0.00 0.00 0.00 67 1011.4
20260905203643 91 272 4.0 7.0 0.00 0.00 0.00 67 1011.4
20260905203138 91 328 1.0 3.0 0.00 0.00 0.00 67 1011.4
20260905202634 92 297 5.0 7.0 0.00 0.00 0.00 68 1011.5
20260905202129 93 259 3.0 5.0 0.00 0.00 0.00 66 1011.4
20260905201624 92 274 0.0 0.0 0.00 0.00 0.00 69 1011.3
20260905201124 92 269 1.0 3.0 0.00 0.00 0.00 68 1011.3
20260905200620 92 286 0.0 1.0 0.00 0.00 0.00 69 1011.6
20260905200115 92 277 2.0 5.0 0.00 0.00 0.00 68 1011.5
20260905195613 93 297 0.0 0.0 0.00 0.00 0.00 67 1011.4
20260905195109 91 253 0.0 0.0 0.00 0.00 0.00 69 1011.4
20260905194609 91 317 1.0 2.0 0.00 0.00 0.00 69 1011.5
20260905194108 91 279 5.0 8.0 0.00 0.00 0.00 69 1011.4
20260905193603 91 204 0.0 0.0 0.00 0.00 0.00 70 1011.8
20260905193058 91 251 0.0 0.0 0.00 0.00 0.00 71 1011.6
20260905192554 92 341 3.0 6.0 0.00 0.00 0.00 71 1011.7
20260905192050 92 348 1.0 2.0 0.00 0.00 0.00 71 1011.8
20260905191548 91 274 1.0 2.0 0.00 0.00 0.00 72 1011.7
20260905191048 91 220 0.0 1.0 0.00 0.00 0.00 71 1011.6
20260905190546 92 270 0.0 0.0 0.00 0.00 0.00 72 1011.7
20260905190040 92 245 1.0 3.0 0.00 0.00 0.00 69 1011.7
20260905185539 92 337 4.0 6.0 0.00 0.00 0.00 70 1011.6
20260905185038 92 288 4.0 6.0 0.00 0.00 0.00 70 1011.9
20260905184533 92 293 3.0 5.0 0.00 0.00 0.00 70 1012.1
20260905184032 92 273 0.0 0.0 0.00 0.00 0.00 69 1012.0
20260905183532 92 256 0.0 2.0 0.00 0.00 0.00 72 1012.0
20260905183027 91 340 6.0 8.0 0.00 0.00 0.00 72 1011.7
20260905182526 92 283 3.0 6.0 0.00 0.00 0.00 71 1011.9
20260905182021 91 251 0.0 1.0 0.00 0.00 0.00 72 1011.9
20260905181516 92 292 2.0 3.0 0.00 0.00 0.00 71 1011.9
20260905181015 92 230 0.0 0.0 0.00 0.00 0.00 68 1012.1
20260905180510 91 270 1.0 3.0 0.00 0.00 0.00 70 1012.4
20260905180006 92 223 0.0 0.0 0.00 0.00 0.00 68 1012.5
20260905175504 92 285 2.0 2.0 0.00 0.00 0.00 70 1012.3
20260905175000 92 304 0.0 0.0 0.00 0.00 0.00 68 1012.3
20260905174455 92 260 2.0 5.0 0.00 0.00 0.00 68 1012.4
20260905173951 91 248 1.0 5.0 0.00 0.00 0.00 69 1012.5
20260905173447 92 248 1.0 2.0 0.00 0.00 0.00 69 1012.7
20260905172943 93 257 3.0 3.0 0.00 0.00 0.00 69 1012.7
20260905172440 92 264 0.0 0.0 0.00 0.00 0.00 70 1013.0
20260905171936 92 287 0.0 0.0 0.00 0.00 0.00 70 1012.9
20260905171433 91 244 1.0 3.0 0.00 0.00 0.00 68 1013.0
20260905170929 91 246 3.0 6.0 0.00 0.00 0.00 72 1013.0
20260905170425 91 26 1.0 2.0 0.00 0.00 0.00 72 1013.1
20260905165924 91 269 0.0 0.0 0.00 0.00 0.00 71 1013.4
20260905165419 90 258 0.0 0.0 0.00 0.00 0.00 72 1013.3
20260905164914 91 297 0.0 0.0 0.00 0.00 0.00 71 1013.4
20260905164408 90 266 0.0 1.0 0.00 0.00 0.00 71 1013.2
20260905163904 90 260 0.0 0.0 0.00 0.00 0.00 73 1013.6
20260905163401 90 292 0.0 1.0 0.00 0.00 0.00 72 1013.4
20260905162856 91 264 1.0 5.0 0.00 0.00 0.00 75 1013.5
20260905162356 91 263 0.0 0.0 0.00 0.00 0.00 71 1013.8
20260905161851 91 251 4.0 5.0 0.00 0.00 0.00 74 1013.8
20260905161350 90 192 0.0 0.0 0.00 0.00 0.00 74 1013.6
20260905160848 90 318 0.0 0.0 0.00 0.00 0.00 76 1013.6
20260905160343 89 295 2.0 2.0 0.00 0.00 0.00 75 1013.7
20260905155837 89 296 0.0 0.0 0.00 0.00 0.00 76 1013.7
20260905155331 90 223 0.0 0.0 0.00 0.00 0.00 75 1013.9
20260905154830 90 263 0.0 0.0 0.00 0.00 0.00 73 1013.8
20260905154326 90 225 0.0 0.0 0.00 0.00 0.00 76 1013.9
20260905153821 89 309 3.0 3.0 0.00 0.00 0.00 75 1014.0
20260905153318 88 274 0.0 0.0 0.00 0.00 0.00 78 1014.0
20260905152817 88 290 0.0 0.0 0.00 0.00 0.00 79 1013.9
20260905152316 89 257 0.0 0.0 0.00 0.00 0.00 78 1013.8